Weather History for Sparta, WI

Change the Weather History Date:

Tuesday, January 1, 2013

  Actual Average Record
Temperature  
Mean Temperature -2 °F -  
Max Temperature 15 °F 23 °F 44 °F (1950)
Min Temperature -20 °F 7 °F -21 °F (1968)
Degree Days  
Heating Degree Days 68    
Moisture  
Dew Point -6 °F    
Average Humidity 71    
Maximum Humidity 85    
Minimum Humidity 53    
Precipitation  
Precipitation 0.00 in - - ()
Sea Level Pressure  
Sea Level Pressure 30.20 in    
Wind  
Wind Speed 1 mph (WSW)    
Max Wind Speed 9 mph    
Max Gust Speed -    
Visibility 10 miles    
Events      
Averages and records for this station are not official NWS values.
T = Trace of Precipitation, MM = Missing Value Source: NWS Daily Summary

Daily Weather History Graph

Daily Weather History Graph

Search for Another Location

Airport:

Trip Planner

Search our weather history database for the weather conditions in past years. The results will help you decide how hot, cold, wet, or windy it might be!

Date:

Astronomy

Jan. 01, 2013 Rise Set
Actual Time 7:37 AM CST 4:36 PM CST
Civil Twilight 7:04 AM CST 5:08 PM CST
Nautical Twilight 6:28 AM CST 5:45 PM CST
Astronomical Twilight 5:53 AM CST 6:20 PM CST
Moon 9:17 PM CST (1/1) 9:40 AM CST (1/1)
Length of Visible Light 10h 04m
Length of Day
8h 58m
Waning Gibbous, 83% of the Moon is Illuminated
Jan 1
Waning Gibbous
Jan 4
Last Quarter
Jan 11
New
Jan 18
First Quarter
Jan 26
Full

Hourly Weather History & Observations

Time (CST) Temp. Windchill Dew Point Humidity Pressure Visibility Wind Dir Wind Speed Gust Speed Precip Events Conditions
12:15 AM -9.4 °F - -13.0 °F 84% 30.22 in 10.0 mi Calm Calm - N/A   Clear
12:35 AM -9.4 °F - -14.8 °F 77% 30.23 in 10.0 mi Calm Calm - N/A   Clear
12:55 AM -9.4 °F - -14.8 °F 77% 30.22 in 10.0 mi Calm Calm - N/A   Clear
1:15 AM -11.2 °F - -16.6 °F 77% 30.22 in 10.0 mi Calm Calm - N/A   Clear
1:35 AM -11.2 °F - -16.6 °F 77% 30.22 in 10.0 mi Calm Calm - N/A   Clear
1:55 AM -13.0 °F - -16.6 °F 84% 30.23 in 10.0 mi Calm Calm - N/A   Clear
2:15 AM -13.0 °F - -16.6 °F 84% 30.23 in 10.0 mi Calm Calm - N/A   Clear
2:35 AM -14.8 °F - -18.4 °F 84% 30.23 in 10.0 mi Calm Calm - N/A   Clear
3:15 AM -14.8 °F - -20.2 °F 77% 30.22 in 10.0 mi Calm Calm - N/A   Clear
3:35 AM -14.8 °F - -20.2 °F 77% 30.22 in 10.0 mi Calm Calm - N/A   Clear
4:15 AM -16.6 °F - -22.0 °F 76% 30.24 in 10.0 mi Calm Calm - N/A   Clear
4:35 AM -16.6 °F - -22.0 °F 76% 30.24 in 10.0 mi Calm Calm - N/A   Clear
4:55 AM -16.6 °F - -23.8 °F 70% 30.25 in 10.0 mi Calm Calm - N/A   Clear
5:15 AM -16.6 °F - -22.0 °F 76% 30.25 in 10.0 mi Calm Calm - N/A   Clear
5:35 AM -18.4 °F - -23.8 °F 76% 30.25 in 10.0 mi Calm Calm - N/A   Clear
5:55 AM -18.4 °F - -23.8 °F 76% 30.26 in 10.0 mi Calm Calm - N/A   Clear
6:15 AM -18.4 °F - -23.8 °F 76% 30.26 in 10.0 mi Calm Calm - N/A   Clear
6:35 AM -18.4 °F - -23.8 °F 76% 30.26 in 10.0 mi Calm Calm - N/A   Clear
6:55 AM -18.4 °F - -25.6 °F 70% 30.26 in 10.0 mi Calm Calm - N/A   Clear
7:15 AM -18.4 °F - -23.8 °F 76% 30.27 in 10.0 mi Calm Calm - N/A   Clear
7:35 AM -20.2 °F - -25.6 °F 76% 30.27 in 10.0 mi Calm Calm - N/A   Clear
7:55 AM -18.4 °F - -25.6 °F 70% 30.27 in 10.0 mi Calm Calm - N/A   Clear
8:15 AM -18.4 °F - -23.8 °F 76% 30.27 in 10.0 mi Calm Calm - N/A   Clear
8:35 AM -16.6 °F - -22.0 °F 76% 30.27 in 10.0 mi Calm Calm - N/A   Clear
9:15 AM -13.0 °F - -16.6 °F 84% 30.27 in 10.0 mi Calm Calm - N/A   Clear
9:35 AM -9.4 °F - -13.0 °F 84% 30.27 in 10.0 mi Calm Calm - N/A   Clear
9:55 AM -4.0 °F - -7.6 °F 85% 30.26 in 10.0 mi Calm Calm - N/A   Clear
10:15 AM -0.4 °F - -5.8 °F 78% 30.25 in 10.0 mi Calm Calm - N/A   Clear
10:35 AM 1.4 °F - -4.0 °F 78% 30.25 in 10.0 mi Calm Calm - N/A   Clear
11:15 AM 5.0 °F - 1.4 °F 85% 30.23 in 10.0 mi Calm Calm - N/A   Clear
11:35 AM 6.8 °F - -0.4 °F 72% 30.23 in 10.0 mi Calm Calm - N/A   Clear
11:55 AM 8.6 °F -2.6 °F -0.4 °F 67% 30.22 in 10.0 mi West 6.9 mph - N/A   Clear
12:15 PM 10.4 °F 0.8 °F -0.4 °F 62% 30.21 in 10.0 mi West 5.8 mph - N/A   Clear
12:35 PM 10.4 °F -0.4 °F -0.4 °F 62% 30.21 in 10.0 mi West 6.9 mph - N/A   Clear
12:55 PM 12.2 °F 2.9 °F -0.4 °F 57% 30.20 in 10.0 mi West 5.8 mph - N/A   Clear
1:15 PM 12.2 °F 1.7 °F -0.4 °F 57% 30.19 in 10.0 mi SW 6.9 mph - N/A   Clear
1:35 PM 12.2 °F 1.7 °F -0.4 °F 57% 30.19 in 10.0 mi SSW 6.9 mph - N/A   Clear
1:55 PM 12.2 °F 1.7 °F -0.4 °F 57% 30.19 in 10.0 mi SW 6.9 mph - N/A   Clear
2:15 PM 14.0 °F 2.0 °F -0.4 °F 53% 30.19 in 10.0 mi West 9.2 mph - N/A   Clear
2:35 PM 14.0 °F 3.9 °F -0.4 °F 53% 30.19 in 10.0 mi West 6.9 mph - N/A   Clear
2:55 PM 14.0 °F 2.9 °F -0.4 °F 53% 30.18 in 10.0 mi WSW 8.1 mph - N/A   Clear
3:15 PM 14.0 °F 2.9 °F -0.4 °F 53% 30.18 in 10.0 mi WSW 8.1 mph - N/A   Clear
3:35 PM 14.0 °F 2.9 °F -0.4 °F 53% 30.18 in 10.0 mi WSW 8.1 mph - N/A   Clear
4:15 PM 12.2 °F - -0.4 °F 57% 30.18 in 10.0 mi Calm Calm - N/A   Scattered Clouds
4:35 PM 12.2 °F - -0.4 °F 57% 30.17 in 10.0 mi Calm Calm - N/A   Scattered Clouds
4:55 PM 10.4 °F - -0.4 °F 62% 30.17 in 10.0 mi Calm Calm - N/A   Mostly Cloudy
5:15 PM 8.6 °F - -0.4 °F 67% 30.17 in 10.0 mi Calm Calm - N/A   Overcast
5:35 PM 8.6 °F - 1.4 °F 73% 30.17 in 10.0 mi Calm Calm - N/A   Overcast
5:55 PM 8.6 °F - 3.2 °F 79% 30.16 in 10.0 mi Calm Calm - N/A   Overcast
6:15 PM 10.4 °F - 3.2 °F 73% 30.15 in 10.0 mi Calm Calm - N/A   Overcast
6:35 PM 10.4 °F - 3.2 °F 73% 30.15 in 10.0 mi Calm Calm - N/A   Overcast
6:55 PM 10.4 °F - 5.0 °F 79% 30.15 in 10.0 mi Calm Calm - N/A   Overcast
7:15 PM 12.2 °F - 3.2 °F 67% 30.14 in 10.0 mi Calm Calm - N/A   Overcast
7:35 PM 12.2 °F - 3.2 °F 67% 30.14 in 10.0 mi Calm Calm - N/A   Overcast
7:55 PM 14.0 °F - 3.2 °F 62% 30.13 in 10.0 mi Calm Calm - N/A   Overcast
8:15 PM 14.0 °F 8.2 °F 3.2 °F 62% 30.13 in 10.0 mi WSW 3.5 mph - N/A   Mostly Cloudy
8:35 PM 14.0 °F - 5.0 °F 67% 30.13 in 10.0 mi Calm Calm - N/A   Mostly Cloudy
8:55 PM 14.0 °F 8.2 °F 5.0 °F 67% 30.13 in 10.0 mi West 3.5 mph - N/A   Mostly Cloudy
9:15 PM 14.0 °F 8.2 °F 6.8 °F 73% 30.12 in 10.0 mi WSW 3.5 mph - N/A   Mostly Cloudy
9:35 PM 15.8 °F 10.2 °F 8.6 °F 73% 30.12 in 10.0 mi WSW 3.5 mph - N/A   Overcast
9:55 PM 15.8 °F 8.6 °F 8.6 °F 73% 30.12 in 10.0 mi WSW 4.6 mph - N/A   Overcast
10:15 PM 15.8 °F 10.2 °F 8.6 °F 73% 30.12 in 10.0 mi WSW 3.5 mph - N/A   Overcast
10:35 PM 15.8 °F 8.6 °F 8.6 °F 73% 30.12 in 10.0 mi WSW 4.6 mph - N/A   Overcast
10:55 PM 15.8 °F - 8.6 °F 73% 30.11 in 10.0 mi Calm Calm - N/A   Overcast
11:15 PM 15.8 °F - 10.4 °F 79% 30.12 in 10.0 mi Calm Calm - N/A   Overcast
11:35 PM 15.8 °F - 10.4 °F 79% 30.11 in 10.0 mi Calm Calm - N/A   Overcast
11:55 PM 15.8 °F - 10.4 °F 79% 30.11 in 10.0 mi Calm Calm - N/A   Overcast